Weather History for KRMG - October, 2013

Change the Weather History Date:

Tuesday, October 8, 2013

  Actual Average Record
Temperature  
Mean Temperature 65 °F 64 °F  
Max Temperature 78 °F 76 °F 89 °F (2007)
Min Temperature 52 °F 52 °F 37 °F (2000)
Degree Days  
Heating Degree Days 0 3  
Month to date heating degree days 0 20  
Since 1 July heating degree days 1 34  
Cooling Degree Days 0 2  
Month to date cooling degree days 39 21  
Year to date cooling degree days 1560 1611  
Growing Degree Days 15 (Base 50)    
Moisture  
Dew Point 53 °F    
Average Humidity 68    
Maximum Humidity 89    
Minimum Humidity 47    
Precipitation  
Precipitation 0.00 in 0.12 in 1.85 in (2008)
Month to date precipitation 1.39 1.08  
Year to date precipitation 39.91  
Snow  
Snow 0.00 in - - ()
Month to date snowfall 0.0  
Since 1 July snowfall 0.0  
Since 1 September snowfall 0.0  
Snow Depth 0.00 in    
Sea Level Pressure  
Sea Level Pressure 30.05 in    
Wind  
Wind Speed 6 mph (NE)    
Max Wind Speed 13 mph    
Max Gust Speed 18 mph    
Visibility 10 miles    
Events      
T = Trace of Precipitation, MM = Missing Value Source: NWS Daily Summary

Daily Weather History Graph

Daily Weather History Graph

Search for Another Location

Airport or City:

Trip Planner

Search our weather history database for the weather conditions in past years. The results will help you decide how hot, cold, wet, or windy it might be!

Date:

Astronomy

Oct. 08, 2013 Rise Set
Actual Time 7:40 AM EDT 7:14 PM EDT
Civil Twilight 7:15 AM EDT 7:40 PM EDT
Nautical Twilight 6:46 AM EDT 8:09 PM EDT
Astronomical Twilight 6:17 AM EDT 8:38 PM EDT
Moon 11:24 AM EDT (10/8) 10:00 PM EDT (10/8)
Length of Visible Light 12h 24m
Length of Day
11h 34m
Waxing Crescent, 16% of the Moon is Illuminated
Oct 8
Waxing Crescent
Oct 11
First Quarter
Oct 18
Full
Oct 26
Last Quarter
Nov 3
New

Hourly Weather History & Observations

Time (EDT) Temp. Dew Point Humidity Pressure Visibility Wind Dir Wind Speed Gust Speed Precip Events Conditions
12:53 AM 59.0 °F 48.9 °F 69% 29.99 in 10.0 mi North 9.2 mph - N/A   Scattered Clouds
1:53 AM 57.9 °F 48.9 °F 72% 30.00 in 10.0 mi North 6.9 mph - N/A   Mostly Cloudy
2:53 AM 57.0 °F 48.9 °F 74% 30.00 in 10.0 mi North 6.9 mph - N/A   Partly Cloudy
3:53 AM 55.9 °F 48.9 °F 77% 29.99 in 10.0 mi NNW 4.6 mph - N/A   Partly Cloudy
4:53 AM 55.0 °F 48.9 °F 80% 30.00 in 10.0 mi NNW 5.8 mph - N/A   Scattered Clouds
5:53 AM 55.0 °F 48.9 °F 80% 30.01 in 10.0 mi North 3.5 mph - N/A   Mostly Cloudy
6:53 AM 53.1 °F 48.9 °F 86% 30.02 in 10.0 mi North 5.8 mph - N/A   Clear
7:53 AM 52.0 °F 48.9 °F 89% 30.04 in 10.0 mi North 4.6 mph - N/A   Mostly Cloudy
8:53 AM 55.0 °F 51.1 °F 86% 30.07 in 10.0 mi NNE 4.6 mph - N/A   Scattered Clouds
9:53 AM 60.1 °F 50.0 °F 69% 30.09 in 10.0 mi NNE 6.9 mph - N/A   Scattered Clouds
10:53 AM 64.0 °F 52.0 °F 65% 30.08 in 10.0 mi NNE 6.9 mph - N/A   Clear
11:53 AM 69.1 °F 54.0 °F 58% 30.08 in 10.0 mi ENE 8.1 mph - N/A   Clear
12:53 PM 72.0 °F 55.0 °F 55% 30.06 in 10.0 mi ENE 6.9 mph - N/A   Clear
1:53 PM 75.0 °F 55.9 °F 51% 30.04 in 10.0 mi Variable 5.8 mph 16.1 mph N/A   Clear
2:53 PM 77.0 °F 55.9 °F 48% 30.03 in 10.0 mi NE 9.2 mph - N/A   Clear
3:50 PM 78.8 °F 57.2 °F 47% 30.04 in 1.8 mi East 8.1 mph - N/A   Haze
3:53 PM 78.1 °F 57.9 °F 50% 30.02 in 1.8 mi East 9.2 mph - N/A   Haze
4:04 PM 78.8 °F 57.2 °F 47% 30.04 in 10.0 mi NE 6.9 mph - N/A   Clear
4:53 PM 78.1 °F 57.9 °F 50% 30.03 in 10.0 mi ESE 9.2 mph - N/A   Partly Cloudy
5:53 PM 75.9 °F 57.0 °F 52% 30.04 in 10.0 mi ESE 8.1 mph - N/A   Clear
6:53 PM 73.9 °F 57.0 °F 55% 30.06 in 10.0 mi ESE 6.9 mph - N/A   Overcast
7:53 PM 71.1 °F 55.9 °F 59% 30.08 in 10.0 mi ESE 6.9 mph - N/A   Overcast
8:53 PM 70.0 °F 55.9 °F 61% 30.09 in 10.0 mi ESE 9.2 mph 16.1 mph N/A   Overcast
9:53 PM 68.0 °F 57.0 °F 68% 30.11 in 10.0 mi East 3.5 mph - N/A   Overcast
10:53 PM 66.9 °F 57.0 °F 70% 30.12 in 10.0 mi East 3.5 mph - N/A   Overcast
11:53 PM 64.9 °F 55.9 °F 73% 30.12 in 10.0 mi East 3.5 mph - N/A   Mostly Cloudy